Jonesville, VA

6:01 AM EDT on August 18, 2017 (GMT -0400)
Jonesville

Weather History for K0VG - June, 2013

Change the Weather History Date:

Tuesday, June 18, 2013

  Actual Average (KLNP) Record (KLNP)
Temperature  
Mean Temperature 66 °F -  
Max Temperature 71 °F 76 °F 91 °F (2007)
Min Temperature 62 °F 56 °F 46 °F (1999)
Cooling Degree Days 2    
Growing Degree Days 16 (Base 50)    
Moisture  
Dew Point 66 °F    
Average Humidity 91    
Maximum Humidity 100    
Minimum Humidity 73    
Precipitation  
Precipitation 1.03 in - - ()
Sea Level Pressure  
Sea Level Pressure 29.95 in    
Wind  
Wind Speed 1 mph (North)    
Max Wind Speed 12 mph    
Max Gust Speed 16 mph    
Visibility 8 miles    
Events Rain    
Averages and records for this station are not official NWS values.
T = Trace of Precipitation, MM = Missing Value Source: NWS Daily Summary

Daily Weather History Graph

Daily Weather History Graph

Search for Another Location

Airport or City:

Trip Planner

Search our weather history database for the weather conditions in past years. The results will help you decide how hot, cold, wet, or windy it might be!

Date:

Astronomy

Jun. 18, 2013 Rise Set
Actual Time 6:14 AM EDT 8:54 PM EDT
Civil Twilight 5:43 AM EDT 9:24 PM EDT
Nautical Twilight 5:05 AM EDT 10:03 PM EDT
Astronomical Twilight 4:22 AM EDT 10:45 PM EDT
Moon 3:43 PM EDT 2:14 AM EDT
Length of Visible Light 15h 41m
Length of Day
14h 40m
Waxing Gibbous, 70% of the Moon is Illuminated
Jun 18
Waxing Gibbous
Jun 23
Full
Jun 30
Last Quarter
Jul 8
New
Jul 15
First Quarter

Hourly Weather History & Observations

Time (EDT) Temp. Dew Point Humidity Pressure Visibility Wind Dir Wind Speed Gust Speed Precip Events Conditions
12:15 AM 71.6 °F 69.8 °F 94% 29.99 in 10.0 mi Calm Calm - N/A   Unknown
12:35 AM 71.6 °F 69.8 °F 94% 29.98 in 10.0 mi Calm Calm - N/A   Unknown
12:55 AM 71.6 °F 69.8 °F 94% 29.97 in 10.0 mi Calm Calm - N/A   Overcast
1:15 AM 69.8 °F 69.8 °F 100% 29.95 in 8.0 mi Calm Calm - N/A   Unknown
1:35 AM 71.6 °F 68.0 °F 88% 29.94 in 10.0 mi Calm Calm - N/A   Unknown
1:55 AM 71.6 °F 68.0 °F 88% 29.94 in 10.0 mi Calm Calm - N/A   Overcast
2:15 AM 69.8 °F 68.0 °F 94% 29.93 in 7.0 mi Calm Calm - N/A Rain Light Rain
2:35 AM 69.8 °F 68.0 °F 94% 29.93 in 4.0 mi Calm Calm - 0.02 in Rain Light Rain
2:55 AM 68.0 °F 68.0 °F 100% 29.93 in 4.0 mi Calm Calm - 0.05 in Rain Light Rain
3:15 AM 68.0 °F 68.0 °F 100% 29.93 in 10.0 mi Calm Calm - N/A   Unknown
3:35 AM 68.0 °F 68.0 °F 100% 29.93 in 7.0 mi Calm Calm - N/A   Overcast
3:55 AM 68.0 °F 68.0 °F 100% 29.93 in 7.0 mi Calm Calm - N/A   Mostly Cloudy
4:15 AM 68.0 °F 68.0 °F 100% 29.93 in 5.0 mi Calm Calm - N/A   Overcast
4:35 AM 66.2 °F 66.2 °F 100% 29.92 in 3.0 mi Calm Calm - N/A Rain Light Rain
4:55 AM 66.2 °F 66.2 °F 100% 29.92 in 5.0 mi Calm Calm - N/A   Overcast
5:15 AM 66.2 °F 66.2 °F 100% 29.93 in 8.0 mi Calm Calm - N/A   Mostly Cloudy
5:35 AM 66.2 °F 66.2 °F 100% 29.93 in 3.0 mi Calm Calm - 0.01 in Rain Light Rain
5:55 AM 66.2 °F 66.2 °F 100% 29.94 in 5.0 mi Calm Calm - 0.01 in   Overcast
6:15 AM 68.0 °F 68.0 °F 100% 29.94 in 5.0 mi Calm Calm - N/A Rain Light Rain
6:35 AM 68.0 °F 68.0 °F 100% 29.94 in 7.0 mi Calm Calm - 0.01 in Rain Light Rain
6:55 AM 68.0 °F 68.0 °F 100% 29.94 in 8.0 mi Calm Calm - 0.01 in   Overcast
7:15 AM 68.0 °F 68.0 °F 100% 29.94 in 7.0 mi Calm Calm - N/A Rain Light Rain
7:35 AM 68.0 °F 68.0 °F 100% 29.94 in 5.0 mi Calm Calm - N/A Rain Light Rain
7:55 AM 66.2 °F 66.2 °F 100% 29.95 in 3.0 mi Calm Calm - 0.01 in Rain Light Rain
8:15 AM 68.0 °F 66.2 °F 94% 29.95 in 5.0 mi Calm Calm - N/A Rain Light Rain
8:35 AM 66.2 °F 66.2 °F 100% 29.95 in 4.0 mi Calm Calm - 0.02 in Rain Light Rain
8:55 AM 66.2 °F 66.2 °F 100% 29.94 in 2.0 mi Calm Calm - 0.06 in Rain Rain
9:15 AM 66.2 °F 66.2 °F 100% 29.94 in 8.0 mi Calm Calm - N/A   Mostly Cloudy
9:35 AM 66.2 °F 66.2 °F 100% 29.94 in 2.0 mi Calm Calm - N/A Rain Light Rain
9:55 AM 66.2 °F 66.2 °F 100% 29.95 in 4.0 mi Calm Calm - 0.01 in Rain Light Rain
10:15 AM 68.0 °F 66.2 °F 94% 29.94 in 4.0 mi Calm Calm - 0.01 in Rain Light Rain
10:35 AM 68.0 °F 66.2 °F 94% 29.93 in 3.0 mi Calm Calm - 0.03 in Rain Light Rain
10:55 AM 68.0 °F 68.0 °F 100% 29.93 in 8.0 mi Calm Calm - 0.03 in Rain Light Rain
11:15 AM 68.0 °F 68.0 °F 100% 29.93 in 2.0 mi Calm Calm - 0.01 in Rain Light Rain
11:35 AM 68.0 °F 68.0 °F 100% 29.92 in 4.0 mi Calm Calm - 0.01 in Rain Light Rain
11:55 AM 68.0 °F 68.0 °F 100% 29.92 in 0.8 mi Calm Calm - 0.13 in Rain Rain
12:15 PM 68.0 °F 68.0 °F 100% 29.93 in 0.5 mi Calm Calm - 0.39 in Rain Heavy Rain
12:35 PM 68.0 °F 68.0 °F 100% 29.92 in 1.8 mi Calm Calm - 0.68 in Rain Rain
12:55 PM 68.0 °F 66.2 °F 94% 29.93 in 7.0 mi North 10.4 mph - 0.72 in Rain Light Rain
1:15 PM 66.2 °F 64.4 °F 94% 29.94 in 10.0 mi NNE 11.5 mph 16.1 mph N/A Rain Light Rain
1:35 PM 68.0 °F 64.4 °F 88% 29.94 in 10.0 mi North 6.9 mph - N/A   Mostly Cloudy
1:55 PM 68.0 °F 62.6 °F 83% 29.95 in 10.0 mi NNE 6.9 mph - N/A   Overcast
2:15 PM 69.8 °F 62.6 °F 78% 29.95 in 10.0 mi North 5.8 mph - N/A   Overcast
2:35 PM 69.8 °F 62.6 °F 78% 29.95 in 10.0 mi North 5.8 mph - N/A   Mostly Cloudy
2:55 PM 69.8 °F 62.6 °F 78% 29.95 in 10.0 mi NNW 5.8 mph - N/A   Mostly Cloudy
3:15 PM 69.8 °F 62.6 °F 78% 29.95 in 10.0 mi North 5.8 mph - N/A   Mostly Cloudy
3:35 PM 71.6 °F 62.6 °F 73% 29.95 in 10.0 mi Calm Calm - N/A   Partly Cloudy
3:55 PM 71.6 °F 62.6 °F 73% 29.96 in 10.0 mi Calm Calm - N/A   Scattered Clouds
4:15 PM 71.6 °F 62.6 °F 73% 29.95 in 10.0 mi Calm Calm - N/A   Partly Cloudy
4:35 PM 71.6 °F 62.6 °F 73% 29.95 in 10.0 mi Calm Calm - N/A   Clear
4:55 PM 71.6 °F 62.6 °F 73% 29.95 in 10.0 mi Calm Calm - N/A   Clear
5:15 PM 71.6 °F 62.6 °F 73% 29.96 in 10.0 mi Calm Calm - N/A   Clear
5:35 PM 71.6 °F 62.6 °F 73% 29.95 in 10.0 mi Calm Calm - N/A   Partly Cloudy
5:55 PM 71.6 °F 62.6 °F 73% 29.95 in 10.0 mi Calm Calm - N/A   Scattered Clouds
6:15 PM 71.6 °F 62.6 °F 73% 29.93 in 10.0 mi SSE 3.5 mph - N/A   Scattered Clouds
6:35 PM 71.6 °F 62.6 °F 73% 29.93 in 10.0 mi SE 3.5 mph - N/A   Mostly Cloudy
6:55 PM 71.6 °F 62.6 °F 73% 29.93 in 10.0 mi Calm Calm - N/A   Scattered Clouds
7:15 PM 71.6 °F 62.6 °F 73% 29.93 in 10.0 mi Calm Calm - N/A   Clear
7:35 PM 71.6 °F 64.4 °F 78% 29.94 in 10.0 mi Calm Calm - N/A   Partly Cloudy
7:55 PM 71.6 °F 64.4 °F 78% 29.95 in 10.0 mi Calm Calm - N/A   Scattered Clouds
8:15 PM 71.6 °F 62.6 °F 73% 29.95 in 10.0 mi Calm Calm - N/A   Mostly Cloudy
8:35 PM 69.8 °F 64.4 °F 83% 29.96 in 10.0 mi Calm Calm - N/A   Scattered Clouds
8:55 PM 68.0 °F 66.2 °F 94% 29.96 in 10.0 mi Calm Calm - N/A   Clear
9:15 PM 66.2 °F 66.2 °F 100% 29.97 in 10.0 mi Calm Calm - N/A   Unknown
9:35 PM 66.2 °F 64.4 °F 94% 29.98 in 10.0 mi Calm Calm - N/A   Unknown
9:55 PM 64.4 °F 64.4 °F 100% 29.99 in 10.0 mi Calm Calm - N/A   Unknown
10:15 PM 64.4 °F 64.4 °F 100% 30.01 in 10.0 mi Calm Calm - N/A   Unknown
10:35 PM 64.4 °F 64.4 °F 100% 30.02 in 10.0 mi Calm Calm - N/A   Unknown
10:55 PM 62.6 °F 62.6 °F 100% 30.02 in 9.0 mi Calm Calm - N/A   Clear
11:15 PM 62.6 °F 62.6 °F 100% 30.03 in 10.0 mi Calm Calm - N/A   Clear
11:35 PM 62.6 °F 62.6 °F 100% 30.02 in 6.0 mi Calm Calm - N/A   Clear
11:55 PM 62.6 °F 62.6 °F 100% 30.03 in 9.0 mi Calm Calm - N/A   Clear